Tracking 35275 objects as of 8-Sep-2026
HD Live streaming from Space Station
objects crossing your sky now

STARLINK-33839

Track STARLINK-33839 now!
10-day predictions
STARLINK-33839 is classified as:


NORAD ID: 64113
Int'l Code: 2025-110T
Launch date: May 23, 2025
Source: United States (US)
Launch site: AIR FORCE WESTERN TEST RANGE (AFWTR)
Your satellite tracking list
Your tracking list is empty




NASA's NSSDC Master Catalog

Two Line Element Set (TLE):
1 64113U 25110T   26251.45270861  .00020141  00000-0  65862-3 0  9991
2 64113  53.1575 256.4748 0001169  54.9234 305.1877 15.31720678 73880
Source of the keplerian elements: AFSPC